Time,TemperatureF,DewpointF,PressureIn,WindDirection,WindDirectionDegrees,WindSpeedMPH,WindSpeedGustMPH,Humidity,HourlyPrecipIn,Conditions,Clouds,dailyrainin,SoftwareType,DateUTC
2013-04-13 00:03:00,32.0,31.0,29.93,East,81,1.0,7.0,96,0.00,,,-99.99,,2013-04-13 04:03:00,
2013-04-13 00:12:00,32.0,31.0,29.93,East,81,1.0,7.0,96,0.00,,,-99.99,,2013-04-13 04:12:00,
2013-04-13 00:23:00,32.0,31.0,29.93,ENE,74,1.0,7.0,96,0.00,,,-99.99,,2013-04-13 04:23:00,
2013-04-13 00:33:00,32.0,31.0,29.93,East,81,2.0,6.0,96,0.00,,,-99.99,,2013-04-13 04:33:00,
2013-04-13 00:42:00,32.0,31.0,29.93,East,81,2.0,6.0,96,0.00,,,-99.99,,2013-04-13 04:42:00,
2013-04-13 00:53:00,32.0,31.0,29.91,ENE,71,0.0,6.0,96,0.00,,,-99.99,,2013-04-13 04:53:00,
2013-04-13 01:03:00,32.0,31.0,29.90,NE,43,2.0,6.0,96,0.00,,,-99.99,,2013-04-13 05:03:00,
2013-04-13 01:12:00,32.0,31.0,29.90,NE,43,2.0,6.0,96,0.00,,,-99.99,,2013-04-13 05:12:00,
2013-04-13 01:22:00,32.0,31.0,29.90,East,91,3.0,10.0,96,0.00,,,-99.99,,2013-04-13 05:22:00,
2013-04-13 01:32:00,32.0,31.0,29.89,NNE,26,9.0,9.0,96,0.00,,,-99.99,,2013-04-13 05:32:00,
2013-04-13 01:43:00,32.0,31.0,29.89,NNE,26,9.0,9.0,96,0.00,,,-99.99,,2013-04-13 05:43:00,
2013-04-13 01:53:00,32.0,31.0,29.88,East,101,2.0,12.0,96,0.00,,,-99.99,,2013-04-13 05:53:00,
2013-04-13 02:02:00,32.0,31.0,29.87,ENE,69,0.0,9.0,96,0.00,,,-99.99,,2013-04-13 06:02:00,
2013-04-13 02:12:00,32.0,31.0,29.87,ENE,69,0.0,9.0,96,0.00,,,-99.99,,2013-04-13 06:12:00,
2013-04-13 02:24:00,32.0,31.0,29.87,ENE,77,2.0,7.0,96,0.00,,,-99.99,,2013-04-13 06:24:00,
2013-04-13 02:35:00,32.0,31.0,29.88,NNE,23,4.0,7.0,96,0.00,,,-99.99,,2013-04-13 06:35:00,
2013-04-13 02:48:00,32.0,31.0,29.88,NNE,23,4.0,7.0,96,0.00,,,-99.99,,2013-04-13 06:48:00,
2013-04-13 02:55:00,32.0,31.0,29.87,NNE,28,4.0,4.0,96,0.00,,,-99.99,,2013-04-13 06:55:00,
2013-04-13 03:05:00,32.0,31.0,29.85,ENE,57,2.0,8.0,96,0.00,,,-99.99,,2013-04-13 07:05:00,
2013-04-13 03:15:00,32.0,31.0,29.85,ENE,57,2.0,8.0,96,0.00,,,-99.99,,2013-04-13 07:15:00,
2013-04-13 03:24:00,32.0,31.0,29.85,NE,43,4.0,9.0,96,0.00,,,-99.99,,2013-04-13 07:24:00,
2013-04-13 03:35:00,32.0,31.0,29.84,North,359,1.0,8.0,96,0.00,,,-99.99,,2013-04-13 07:35:00,
2013-04-13 03:45:00,32.0,31.0,29.84,North,359,1.0,8.0,96,0.00,,,-99.99,,2013-04-13 07:45:00,
2013-04-13 03:54:00,32.0,31.0,29.84,NNE,28,0.0,11.0,96,0.00,,,-99.99,,2013-04-13 07:54:00,
2013-04-13 04:07:00,32.0,31.0,29.83,NE,45,6.0,9.0,97,0.00,,,-99.99,,2013-04-13 08:07:00,
2013-04-13 04:15:00,32.0,31.0,29.83,NE,45,6.0,9.0,97,0.00,,,-99.99,,2013-04-13 08:15:00,
2013-04-13 04:25:00,32.0,31.0,29.80,NE,41,4.0,11.0,96,0.00,,,-99.99,,2013-04-13 08:25:00,
2013-04-13 04:35:00,33.0,32.0,29.78,ESE,112,2.0,11.0,97,0.00,,,-99.99,,2013-04-13 08:35:00,
2013-04-13 04:45:00,33.0,32.0,29.78,ESE,112,2.0,11.0,97,0.00,,,-99.99,,2013-04-13 08:45:00,
2013-04-13 04:55:00,33.0,32.0,29.79,East,81,5.0,12.0,97,0.00,,,-99.99,,2013-04-13 08:55:00,
2013-04-13 05:05:00,33.0,32.0,29.81,NNW,338,3.0,15.0,97,0.00,,,-99.99,,2013-04-13 09:05:00,
2013-04-13 05:24:00,33.0,32.0,29.79,NNE,30,2.0,7.0,97,0.00,,,-99.99,,2013-04-13 09:24:00,
2013-04-13 05:37:00,33.0,32.0,29.81,NW,313,1.0,11.0,97,0.00,,,-99.99,,2013-04-13 09:37:00,
2013-04-13 05:56:00,33.0,32.0,29.84,NNW,334,2.0,6.0,96,0.00,,,-99.99,,2013-04-13 09:56:00,
2013-04-13 06:05:00,33.0,32.0,29.81,NNW,330,0.0,4.0,96,0.00,,,-99.99,,2013-04-13 10:05:00,
2013-04-13 06:15:00,33.0,32.0,29.80,North,349,0.0,5.0,97,0.00,,,-99.99,,2013-04-13 10:15:00,
2013-04-13 06:24:00,33.0,32.0,29.80,North,349,0.0,5.0,97,0.00,,,-99.99,,2013-04-13 10:24:00,
2013-04-13 06:37:00,33.0,32.0,29.78,NW,315,0.0,11.0,97,0.00,,,-99.99,,2013-04-13 10:37:00,
2013-04-13 06:46:00,33.0,32.0,29.78,NW,315,0.0,11.0,97,0.00,,,-99.99,,2013-04-13 10:46:00,
2013-04-13 06:54:00,33.0,32.0,29.77,NNE,22,0.0,9.0,97,0.00,,,-99.99,,2013-04-13 10:54:00,
2013-04-13 07:08:00,33.0,32.0,29.78,ENE,64,0.0,9.0,97,0.00,,,-99.99,,2013-04-13 11:08:00,
2013-04-13 07:14:00,33.0,32.0,29.78,ENE,64,0.0,9.0,97,0.00,,,-99.99,,2013-04-13 11:14:00,
2013-04-13 07:24:00,33.0,32.0,29.78,NNE,25,0.0,6.0,97,0.08,,,-99.99,,2013-04-13 11:24:00,
2013-04-13 07:34:00,33.0,32.0,29.79,NNW,340,2.0,5.0,97,0.11,,,-99.99,,2013-04-13 11:34:00,
2013-04-13 07:45:00,33.0,32.0,29.79,NNW,340,2.0,5.0,97,0.11,,,-99.99,,2013-04-13 11:45:00,
2013-04-13 07:54:00,33.0,32.0,29.77,NNE,22,0.0,6.0,97,0.04,,,-99.99,,2013-04-13 11:54:00,
2013-04-13 08:08:00,33.0,32.0,29.76,NNW,334,0.0,8.0,97,0.00,,,-99.99,,2013-04-13 12:08:00,
2013-04-13 08:15:00,33.0,32.0,29.76,NNW,334,0.0,8.0,97,0.00,,,-99.99,,2013-04-13 12:15:00,
2013-04-13 08:25:00,33.0,32.0,29.78,NNW,332,3.0,6.0,97,0.00,,,-99.99,,2013-04-13 12:25:00,
2013-04-13 08:36:00,33.0,32.0,29.77,NW,326,2.0,7.0,97,0.00,,,-99.99,,2013-04-13 12:36:00,
2013-04-13 08:55:00,34.0,33.0,29.77,North,351,0.0,7.0,96,0.00,,,-99.99,,2013-04-13 12:55:00,
2013-04-13 09:15:00,34.0,33.0,29.77,NW,322,3.0,9.0,96,0.00,,,-99.99,,2013-04-13 13:15:00,
2013-04-13 09:30:00,34.0,33.0,29.77,NW,322,0.0,8.0,96,0.05,,,-99.99,,2013-04-13 13:30:00,
2013-04-13 09:48:00,34.0,33.0,29.77,NNW,347,0.0,7.0,96,0.00,,,-99.99,,2013-04-13 13:48:00,
2013-04-13 09:54:00,34.0,33.0,29.78,North,7,4.0,9.0,96,0.05,,,-99.99,,2013-04-13 13:54:00,
2013-04-13 10:15:00,34.0,33.0,29.78,NNE,20,4.0,6.0,96,0.05,,,-99.99,,2013-04-13 14:15:00,
2013-04-13 10:24:00,34.0,33.0,29.79,NNW,336,4.0,9.0,96,0.00,,,-99.99,,2013-04-13 14:24:00,
2013-04-13 10:39:00,35.0,34.0,29.79,NNW,336,1.0,6.0,96,0.05,,,-99.99,,2013-04-13 14:39:00,
2013-04-13 10:46:00,35.0,34.0,29.79,NNW,336,1.0,6.0,96,0.05,,,-99.99,,2013-04-13 14:46:00,
2013-04-13 11:00:00,35.0,34.0,29.79,North,10,1.0,8.0,95,0.00,,,-99.99,,2013-04-13 15:00:00,
2013-04-13 11:05:00,35.0,34.0,29.79,NNW,336,4.0,9.0,95,0.07,,,-99.99,,2013-04-13 15:05:00,
2013-04-13 11:14:00,35.0,34.0,29.79,NNW,336,4.0,9.0,95,0.07,,,-99.99,,2013-04-13 15:14:00,
2013-04-13 11:29:00,36.0,35.0,29.78,NW,324,5.0,7.0,95,0.08,,,-99.99,,2013-04-13 15:29:00,
2013-04-13 11:37:00,36.0,34.0,29.78,WNW,303,6.0,10.0,94,0.06,,,-99.99,,2013-04-13 15:37:00,
2013-04-13 11:44:00,36.0,34.0,29.78,WNW,303,6.0,10.0,94,0.06,,,-99.99,,2013-04-13 15:44:00,
2013-04-13 11:58:00,36.0,34.0,29.78,NW,323,0.0,10.0,93,0.08,,,-99.99,,2013-04-13 15:58:00,
2013-04-13 12:07:00,37.0,35.0,29.79,NNW,347,4.0,7.0,93,0.04,,,-99.99,,2013-04-13 16:07:00,
2013-04-13 12:15:00,37.0,35.0,29.79,NNW,347,4.0,7.0,93,0.04,,,-99.99,,2013-04-13 16:15:00,
2013-04-13 12:25:00,37.0,35.0,29.79,NW,309,4.0,5.0,93,0.07,,,-99.99,,2013-04-13 16:25:00,
2013-04-13 12:36:00,37.0,35.0,29.80,NNW,327,2.0,8.0,92,0.00,,,-99.99,,2013-04-13 16:36:00,
2013-04-13 12:46:00,37.0,35.0,29.80,NNW,327,2.0,8.0,92,0.00,,,-99.99,,2013-04-13 16:46:00,
2013-04-13 12:54:00,37.0,35.0,29.78,NW,319,3.0,12.0,91,0.05,,,-99.99,,2013-04-13 16:54:00,
2013-04-13 13:08:00,37.0,35.0,29.78,NW,312,2.0,8.0,92,0.04,,,-99.99,,2013-04-13 17:08:00,
2013-04-13 13:21:00,37.0,35.0,29.78,NW,312,2.0,8.0,92,0.04,,,-99.99,,2013-04-13 17:21:00,
2013-04-13 13:38:00,38.0,35.0,29.79,NNW,329,2.0,10.0,90,0.04,,,-99.99,,2013-04-13 17:38:00,
2013-04-13 13:44:00,38.0,35.0,29.79,NNW,329,2.0,10.0,90,0.04,,,-99.99,,2013-04-13 17:44:00,
2013-04-13 14:04:00,38.0,35.0,29.78,NW,308,3.0,12.0,90,0.04,,,-99.99,,2013-04-13 18:04:00,
2013-04-13 14:25:00,40.0,37.0,29.79,NW,307,3.0,10.0,88,0.04,,,-99.99,,2013-04-13 18:25:00,
2013-04-13 14:33:00,40.0,36.0,29.79,NW,314,3.0,10.0,86,0.00,,,-99.99,,2013-04-13 18:33:00,
2013-04-13 14:42:00,40.0,36.0,29.79,NW,314,3.0,10.0,86,0.00,,,-99.99,,2013-04-13 18:42:00,
2013-04-13 14:53:00,40.0,36.0,29.78,NNW,338,5.0,13.0,86,0.00,,,-99.99,,2013-04-13 18:53:00,
2013-04-13 15:03:00,41.0,37.0,29.77,NE,37,4.0,11.0,86,0.04,,,-99.99,,2013-04-13 19:03:00,
2013-04-13 15:12:00,41.0,37.0,29.77,NE,37,4.0,11.0,86,0.04,,,-99.99,,2013-04-13 19:12:00,
2013-04-13 15:22:00,41.0,37.0,29.78,NNW,337,6.0,11.0,86,0.00,,,-99.99,,2013-04-13 19:22:00,
2013-04-13 15:32:00,42.0,38.0,29.78,NW,315,3.0,18.0,84,0.00,,,-99.99,,2013-04-13 19:32:00,
2013-04-13 15:42:00,42.0,38.0,29.78,NW,315,3.0,18.0,84,0.00,,,-99.99,,2013-04-13 19:42:00,
2013-04-13 15:52:00,43.0,38.0,29.79,NNW,338,2.0,11.0,82,0.00,,,-99.99,,2013-04-13 19:52:00,
2013-04-13 16:02:00,43.0,38.0,29.79,NNW,332,4.0,10.0,82,0.00,,,-99.99,,2013-04-13 20:02:00,
2013-04-13 16:12:00,43.0,38.0,29.79,NNW,332,4.0,10.0,82,0.00,,,-99.99,,2013-04-13 20:12:00,
2013-04-13 16:22:00,42.0,37.0,29.78,NW,311,4.0,10.0,81,0.00,,,-99.99,,2013-04-13 20:22:00,
2013-04-13 16:32:00,42.0,37.0,29.78,NNW,342,6.0,12.0,82,0.00,,,-99.99,,2013-04-13 20:32:00,
2013-04-13 16:42:00,42.0,37.0,29.78,NNW,342,6.0,12.0,82,0.00,,,-99.99,,2013-04-13 20:42:00,
2013-04-13 16:52:00,42.0,37.0,29.80,WNW,303,5.0,10.0,82,0.00,,,-99.99,,2013-04-13 20:52:00,
2013-04-13 17:02:00,42.0,37.0,29.79,NNW,332,4.0,8.0,83,0.00,,,-99.99,,2013-04-13 21:02:00,
2013-04-13 17:12:00,42.0,37.0,29.79,NNW,332,4.0,8.0,83,0.00,,,-99.99,,2013-04-13 21:12:00,
2013-04-13 17:22:00,41.0,37.0,29.79,NW,306,4.0,8.0,84,0.00,,,-99.99,,2013-04-13 21:22:00,
2013-04-13 17:33:00,41.0,37.0,29.79,NNW,334,6.0,8.0,84,0.00,,,-99.99,,2013-04-13 21:33:00,
2013-04-13 17:43:00,41.0,37.0,29.79,NNW,334,6.0,8.0,84,0.00,,,-99.99,,2013-04-13 21:43:00,
2013-04-13 17:53:00,41.0,37.0,29.80,NW,325,2.0,11.0,84,0.00,,,-99.99,,2013-04-13 21:53:00,
2013-04-13 18:03:00,40.0,36.0,29.81,NW,322,0.0,8.0,84,0.00,,,-99.99,,2013-04-13 22:03:00,
2013-04-13 18:13:00,40.0,36.0,29.81,NW,322,0.0,8.0,84,0.00,,,-99.99,,2013-04-13 22:13:00,
2013-04-13 18:22:00,40.0,36.0,29.81,NNW,337,2.0,6.0,85,0.00,,,-99.99,,2013-04-13 22:22:00,
2013-04-13 18:33:00,40.0,36.0,29.82,NNW,336,2.0,7.0,85,0.00,,,-99.99,,2013-04-13 22:33:00,
2013-04-13 18:42:00,40.0,36.0,29.82,NNW,336,2.0,7.0,85,0.00,,,-99.99,,2013-04-13 22:42:00,
2013-04-13 18:52:00,40.0,36.0,29.83,North,349,0.0,5.0,85,0.00,,,-99.99,,2013-04-13 22:52:00,
2013-04-13 19:02:00,40.0,36.0,29.83,NNW,336,3.0,7.0,85,0.00,,,-99.99,,2013-04-13 23:02:00,
2013-04-13 19:12:00,40.0,36.0,29.83,NNW,336,3.0,7.0,85,0.00,,,-99.99,,2013-04-13 23:12:00,
2013-04-13 19:22:00,40.0,36.0,29.83,NNW,340,0.0,3.0,86,0.00,,,-99.99,,2013-04-13 23:22:00,
2013-04-13 19:33:00,40.0,36.0,29.85,NNW,340,0.0,0.0,87,0.00,,,-99.99,,2013-04-13 23:33:00,
2013-04-13 19:42:00,40.0,36.0,29.85,NNW,340,0.0,0.0,87,0.00,,,-99.99,,2013-04-13 23:42:00,
2013-04-13 19:53:00,39.0,36.0,29.85,East,81,0.0,4.0,88,0.00,,,-99.99,,2013-04-13 23:53:00,
2013-04-13 20:03:00,39.0,36.0,29.85,North,353,0.0,3.0,88,0.00,,,-99.99,,2013-04-14 00:03:00,
2013-04-13 20:12:00,39.0,36.0,29.85,North,353,0.0,3.0,88,0.00,,,-99.99,,2013-04-14 00:12:00,
2013-04-13 20:22:00,39.0,36.0,29.87,North,354,0.0,2.0,89,0.00,,,-99.99,,2013-04-14 00:22:00,
2013-04-13 20:32:00,39.0,36.0,29.87,North,354,0.0,0.0,90,0.00,,,-99.99,,2013-04-14 00:32:00,
2013-04-13 20:42:00,39.0,36.0,29.87,North,354,0.0,0.0,90,0.00,,,-99.99,,2013-04-14 00:42:00,
2013-04-13 20:52:00,39.0,36.0,29.88,North,354,0.0,0.0,90,0.00,,,-99.99,,2013-04-14 00:52:00,
2013-04-13 21:02:00,39.0,37.0,29.88,North,354,0.0,2.0,91,0.00,,,-99.99,,2013-04-14 01:02:00,
2013-04-13 21:12:00,39.0,37.0,29.88,North,354,0.0,2.0,91,0.00,,,-99.99,,2013-04-14 01:12:00,
2013-04-13 21:22:00,38.0,36.0,29.89,North,11,0.0,4.0,91,0.00,,,-99.99,,2013-04-14 01:22:00,
2013-04-13 21:32:00,38.0,36.0,29.89,North,11,0.0,1.0,91,0.00,,,-99.99,,2013-04-14 01:32:00,
2013-04-13 21:42:00,38.0,36.0,29.89,North,11,0.0,1.0,91,0.00,,,-99.99,,2013-04-14 01:42:00,
2013-04-13 21:53:00,38.0,36.0,29.89,North,11,0.0,0.0,92,0.00,,,-99.99,,2013-04-14 01:53:00,
2013-04-13 22:02:00,38.0,36.0,29.89,North,11,0.0,0.0,93,0.00,,,-99.99,,2013-04-14 02:02:00,
2013-04-13 22:12:00,38.0,36.0,29.89,North,11,0.0,0.0,93,0.00,,,-99.99,,2013-04-14 02:12:00,
2013-04-13 22:22:00,37.0,35.0,29.89,North,11,0.0,0.0,94,0.00,,,-99.99,,2013-04-14 02:22:00,
2013-04-13 22:32:00,37.0,35.0,29.89,North,11,0.0,0.0,94,0.00,,,-99.99,,2013-04-14 02:32:00,
2013-04-13 22:42:00,37.0,35.0,29.89,North,11,0.0,0.0,94,0.00,,,-99.99,,2013-04-14 02:42:00,
2013-04-13 22:53:00,37.0,35.0,29.88,North,11,0.0,0.0,94,0.00,,,-99.99,,2013-04-14 02:53:00,
2013-04-13 23:03:00,36.0,34.0,29.88,North,11,0.0,0.0,94,0.00,,,-99.99,,2013-04-14 03:03:00,
2013-04-13 23:12:00,36.0,34.0,29.88,North,11,0.0,0.0,94,0.00,,,-99.99,,2013-04-14 03:12:00,
2013-04-13 23:22:00,36.0,35.0,29.88,North,11,0.0,0.0,95,0.00,,,-99.99,,2013-04-14 03:22:00,
2013-04-13 23:33:00,36.0,35.0,29.89,North,11,0.0,0.0,95,0.00,,,-99.99,,2013-04-14 03:33:00,
2013-04-13 23:42:00,36.0,35.0,29.89,North,11,0.0,0.0,95,0.00,,,-99.99,,2013-04-14 03:42:00,
2013-04-13 23:53:00,36.0,35.0,29.89,North,11,0.0,0.0,95,0.00,,,-99.99,,2013-04-14 03:53:00,